Torna al catalogo

STARLINK-34766

AttivoComunicazioniVLEO
NORAD 66505·PAYLOAD·🇺🇸 United States

Lanciato Nov 15, 2025 da Cape Canaveral Space Force Station

Loading…

Prossimi Passaggi (prossime 24 ore)

TLE

AggiornatoSource: CelesTrak SupGP

Epoca: Sep 14, 2026, 21:13 UTC

1 66505C 25263W   26257.88451389  .00012343  00000+0  44701-3 0  2576
2 66505  43.0027   1.8387 0001642 275.4424 250.2882 15.27577077    14

Traccia STARLINK-34766 in tempo reale con AllMySat

Download on the App Store